Weather History for Lima, OH

Change the Weather History Date:

Monday, October 29, 2012

  Actual Average (KFDY) Record (KFDY)
Temperature  
Mean Temperature 40 °F -  
Max Temperature 43 °F 55 °F 77 °F (1999)
Min Temperature 37 °F 37 °F 22 °F (1965)
Degree Days  
Heating Degree Days 25    
Moisture  
Dew Point 29 °F    
Average Humidity 66    
Maximum Humidity 82    
Minimum Humidity 45    
Precipitation  
Precipitation 0.03 in - - ()
Sea Level Pressure  
Sea Level Pressure 29.96 in    
Wind  
Wind Speed 16 mph (NNW)    
Max Wind Speed 31 mph    
Max Gust Speed 40 mph    
Visibility 10 miles    
Events Rain    
Averages and records for this station are not official NWS values.
T = Trace of Precipitation, MM = Missing Value Source: NWS Daily Summary

Daily Weather History Graph

Daily Weather History Graph

Search for Another Location

Airport:

Trip Planner

Search our weather history database for the weather conditions in past years. The results will help you decide how hot, cold, wet, or windy it might be!

Date:

Astronomy

Oct. 29, 2012 Rise Set
Actual Time 8:03 AM EDT 6:35 PM EDT
Civil Twilight 7:35 AM EDT 7:03 PM EDT
Nautical Twilight 7:02 AM EDT 7:35 PM EDT
Astronomical Twilight 6:31 AM EDT 8:07 PM EDT
Moon 6:26 PM EDT (10/29) 7:53 AM EDT (10/29)
Length of Visible Light 11h 28m
Length of Day
10h 32m
Full, 100% of the Moon is Illuminated
Oct 29
Full
Oct 29
Full
Nov 6
Last Quarter
Nov 13
New
Nov 20
First Quarter

Hourly Weather History & Observations

Time (EDT) Temp. Windchill Dew Point Humidity Pressure Visibility Wind Dir Wind Speed Gust Speed Precip Events Conditions
12:53 AM 41.0 °F 33.9 °F 28.9 °F 62% 30.07 in 10.0 mi North 12.7 mph 23.0 mph N/A   Overcast
1:53 AM 41.0 °F 34.3 °F 28.9 °F 62% 30.06 in 10.0 mi North 11.5 mph 23.0 mph N/A   Overcast
2:29 AM 39.2 °F 31.6 °F 30.2 °F 70% 30.04 in 10.0 mi North 12.7 mph 21.9 mph 0.00 in Rain Light Rain
2:53 AM 39.0 °F 29.6 °F 30.0 °F 70% 30.05 in 10.0 mi North 18.4 mph 27.6 mph 0.00 in Rain Light Rain
3:03 AM 39.2 °F 30.2 °F 30.2 °F 70% 30.04 in 10.0 mi North 17.3 mph 25.3 mph 0.00 in Rain Light Rain
3:53 AM 37.9 °F 30.0 °F 30.0 °F 73% 30.05 in 10.0 mi North 12.7 mph 25.3 mph 0.00 in Rain Light Rain
4:19 AM 37.4 °F 27.5 °F 30.2 °F 75% 30.03 in 10.0 mi North 18.4 mph 25.3 mph 0.00 in Rain Light Rain
4:53 AM 37.0 °F 28.1 °F 32.0 °F 82% 30.05 in 9.0 mi North 15.0 mph 21.9 mph 0.01 in Rain Light Rain
5:27 AM 37.4 °F 29.3 °F 32.0 °F 81% 30.02 in 10.0 mi NNW 12.7 mph 21.9 mph 0.01 in Rain Light Rain
5:53 AM 37.0 °F 28.1 °F 32.0 °F 82% 30.04 in 10.0 mi NNW 15.0 mph 21.9 mph 0.01 in Rain Light Rain
6:53 AM 37.0 °F 28.5 °F 30.9 °F 79% 30.04 in 10.0 mi North 13.8 mph 23.0 mph 0.01 in   Overcast
7:53 AM 37.9 °F 29.2 °F 30.0 °F 73% 30.04 in 10.0 mi NNW 15.0 mph 29.9 mph 0.00 in Rain Light Rain
8:53 AM 37.0 °F 28.9 °F 30.9 °F 79% 30.03 in 10.0 mi NNW 12.7 mph 24.2 mph 0.00 in Rain Light Rain
9:53 AM 37.9 °F 29.2 °F 30.0 °F 73% 30.03 in 10.0 mi NNW 15.0 mph 24.2 mph 0.00 in Rain Light Rain
10:53 AM 39.0 °F 31.4 °F 30.0 °F 70% 30.02 in 10.0 mi NNW 12.7 mph 27.6 mph 0.00 in   Overcast
11:53 AM 39.9 °F 31.1 °F 30.0 °F 68% 30.01 in 10.0 mi NNW 17.3 mph 26.5 mph N/A   Overcast
12:53 PM 41.0 °F 32.5 °F 30.9 °F 67% 29.98 in 10.0 mi NNW 17.3 mph 29.9 mph 0.00 in Rain Light Rain
1:30 PM 41.0 °F 31.1 °F 30.2 °F 65% 29.95 in 10.0 mi NNW 23.0 mph 32.2 mph 0.00 in Rain Light Rain
1:53 PM 42.1 °F 33.1 °F 30.9 °F 65% 29.97 in 10.0 mi NNW 20.7 mph 28.8 mph 0.00 in   Overcast
2:53 PM 42.1 °F 34.2 °F 30.9 °F 65% 29.95 in 10.0 mi NNW 16.1 mph 33.4 mph 0.00 in   Overcast
3:23 PM 42.8 °F 34.3 °F 30.2 °F 61% 29.91 in 10.0 mi NNW 19.6 mph 31.1 mph N/A   Overcast
3:53 PM 42.1 °F 33.9 °F 30.0 °F 62% 29.92 in 10.0 mi NNW 17.3 mph 33.4 mph N/A   Overcast
4:34 PM 42.8 °F 34.5 °F 30.2 °F 61% 29.90 in 10.0 mi NNW 18.4 mph 31.1 mph N/A   Overcast
4:53 PM 42.1 °F 32.8 °F 30.0 °F 62% 29.91 in 10.0 mi NNW 21.9 mph 32.2 mph N/A   Overcast
5:06 PM 42.8 °F 34.5 °F 30.2 °F 61% 29.89 in 10.0 mi NNW 18.4 mph 35.7 mph N/A   Overcast
5:53 PM 42.1 °F 33.3 °F 28.9 °F 60% 29.89 in 10.0 mi NNW 19.6 mph 36.8 mph N/A   Overcast
6:53 PM 42.1 °F 32.8 °F 28.0 °F 58% 29.86 in 10.0 mi NNW 21.9 mph 34.5 mph 0.00 in   Overcast
7:53 PM 43.0 °F 35.1 °F 24.1 °F 47% 29.84 in 10.0 mi NNW 17.3 mph 31.1 mph N/A   Overcast
8:53 PM 43.0 °F 34.8 °F 23.0 °F 45% 29.81 in 10.0 mi NNW 18.4 mph 33.4 mph N/A   Overcast
9:53 PM 42.1 °F 31.9 °F 24.1 °F 49% 29.78 in 10.0 mi NNW 26.5 mph 36.8 mph N/A   Overcast
10:53 PM 41.0 °F 29.7 °F 25.0 °F 53% 29.75 in 10.0 mi NNW 31.1 mph 40.3 mph 0.00 in Rain Light Rain
11:53 PM 39.9 °F 29.2 °F 25.0 °F 55% 29.71 in 10.0 mi NNW 25.3 mph 33.4 mph 0.00 in Rain Light Rain